DW8722 Weather Reports


time (UTC)temp
C
wind
direction
speed
KPH
gust
KPH
rain 1hr
cm
rain 24hr
cm
rain mn
cm
humidity
%
barometer
mb
20260510163608 17 332 29.0 49.9 3.07 4.75 4.80 91 1017.2
20260510162556 18 319 27.4 49.9 5.87 3.84 3.86 88 1016.6
20260510161525 20 336 17.7 33.8 0.00 3.17 3.17 81 1016.2
20260510160514 21 355 14.5 33.8 0.00 3.17 3.17 80 1014.8
20260510155459 22 345 9.7 29.0 0.00 3.17 3.17 79 1014.8
20260510154519 23 5 1.6 12.9 0.00 3.17 3.17 78 1014.5
20260510153521 23 5 0.0 4.8 0.00 3.17 3.17 78 1014.1
20260510152521 23 128 3.2 14.5 0.00 3.17 3.17 79 1013.6
20260510151509 23 161 4.8 12.9 0.00 3.17 3.17 81 1013.3
20260510150443 22 163 3.2 16.1 0.00 3.17 3.17 83 1013.1
20260510145507 22 169 6.4 17.7 0.00 3.17 3.17 83 1012.7
20260510144456 21 175 8.0 17.7 0.00 3.17 3.17 82 1012.7
20260510143500 21 138 4.8 16.1 0.00 3.17 3.17 85 1012.8
20260510141241 20 174 9.7 19.3 0.00 3.17 3.17 88 1013.1
20260510140243 20 175 6.4 14.5 0.00 3.17 3.17 89 1013.6
20260510135250 20 165 0.0 3.2 0.00 3.17 3.17 91 1013.8
20260510134300 19 182 0.0 8.0 0.00 3.17 3.17 91 1013.8
20260510133320 19 213 0.0 6.4 0.00 3.17 3.17 90 1013.8
20260510132323 18 148 0.0 6.4 0.00 3.17 3.17 90 1013.8
20260510131308 18 132 0.0 0.0 0.00 3.17 3.17 89 1013.8
20260510130238 18 134 1.6 11.3 0.00 3.17 3.17 90 1013.7
20260510125257 18 100 0.0 4.8 0.00 3.17 3.17 90 1013.7
20260510124233 18 27 0.0 0.0 0.00 3.17 3.17 90 1013.7
20260510123214 17 118 3.2 9.7 0.00 3.17 3.17 90 1013.7
20260510122210 17 130 4.8 11.3 0.00 3.17 3.17 91 1013.3
20260510121226 17 141 1.6 11.3 0.00 3.17 3.17 91 1012.8
20260510120209 17 109 1.6 12.9 0.00 3.17 3.17 91 1013.5
20260510115204 17 134 3.2 12.9 0.00 3.17 3.17 91 1013.3
20260510114211 17 155 4.8 12.9 0.00 3.17 3.17 91 1013.2
20260510113142 17 149 3.2 12.9 0.00 3.17 3.17 91 1013.3
20260510112157 17 104 0.0 8.0 0.00 3.17 3.17 91 1013.1
20260510111203 17 100 0.0 3.2 0.00 3.17 3.17 91 1013.2
20260510110215 17 103 0.0 0.0 0.00 3.17 3.17 91 1013.2
20260510105236 17 149 3.2 11.3 0.00 3.17 3.17 91 1012.9
20260510104226 17 157 0.0 0.0 0.00 3.17 3.17 91 1013.0
20260510103221 17 58 0.0 0.0 0.00 3.17 3.17 91 1012.8
20260510102227 18 66 1.6 17.7 0.00 3.17 3.17 91 1012.7
20260510101222 18 121 4.8 17.7 0.00 3.17 3.17 91 1012.1
20260510100205 17 94 1.6 9.7 0.00 3.17 3.17 91 1012.8
20260510094042 17 99 9.7 32.2 0.20 3.17 3.17 91 1012.3
20260510093104 18 82 16.1 32.2 0.30 3.12 3.15 91 1011.6
20260510092042 18 89 6.4 14.5 0.23 3.10 3.10 91 1013.9
20260510091012 18 55 1.6 12.9 1.30 3.02 3.05 91 1013.9
20260510084842 18 9 12.9 25.7 6.86 1.83 1.85 90 1014.7
20260510083826 18 11 12.9 27.4 4.90 0.58 0.64 88 1015.2
20260510082850 19 20 3.2 27.4 0.00 0.15 0.15 87 1012.7
20260510081825 19 302 0.0 0.0 0.00 0.15 0.15 86 1012.1
20260510080817 19 28 4.8 22.5 0.00 0.15 0.15 85 1011.6
20260510075756 20 5 11.3 20.9 0.00 0.15 0.15 85 1011.5
20260510074745 19 19 12.9 27.4 0.00 0.15 0.15 86 1011.6
20260510073746 19 11 9.7 27.4 0.00 0.15 0.15 88 1010.9
20260510072726 20 5 12.9 24.1 0.00 0.15 0.15 88 1010.8
20260510071708 20 38 6.4 19.3 0.00 0.15 0.15 87 1010.1
20260510065524 23 52 1.6 11.3 0.66 0.10 0.13 89 1011.2
20260510064529 23 49 0.0 6.4 0.00 0.00 0.00 89 1011.9
20260510063530 23 348 4.8 17.7 0.00 0.00 0.00 89 1011.9
20260510060202 23 338 6.4 17.7 0.00 0.00 0.00 89 1012.0
20260510055212 23 343 8.0 16.1 0.00 0.00 0.00 90 1011.8
20260510054212 23 25 4.8 12.9 0.00 0.00 0.00 89 1011.2
20260510053216 23 57 3.2 14.5 0.00 0.00 0.00 89 1010.3
20260510052234 23 109 4.8 14.5 0.00 0.00 0.00 89 1009.6
20260510051212 23 109 6.4 14.5 0.00 0.00 0.00 89 1009.5
20260510050146 22 119 8.0 14.5 0.00 0.00 0.00 89 1009.3
20260510045126 22 123 4.8 12.9 0.00 0.00 0.00 88 1009.1
20260510044054 22 130 6.4 19.3 0.00 0.00 0.00 88 1009.1
20260510043037 22 142 8.0 19.3 0.00 0.00 0.00 88 1008.8
20260510040932 22 121 6.4 16.1 0.00 0.00 0.00 86 1008.8
20260510035932 22 142 6.4 12.9 0.00 0.00 0.00 85 1008.7
20260510034947 22 127 1.6 12.9 0.00 0.00 0.00 83 1008.9
20260510033913 22 132 1.6 9.7 0.00 0.00 0.00 82 1008.9
20260510032923 22 115 1.6 8.0 0.00 0.00 0.00 81 1008.8
20260510031927 22 101 3.2 11.3 0.00 0.00 0.00 81 1008.8
20260510030915 22 109 3.2 11.3 0.00 0.05 0.00 80 1008.7
20260510025905 22 107 1.6 8.0 0.00 1.17 0.00 79 1008.7
20260510024852 22 95 0.0 0.0 0.00 1.17 0.00 77 1008.9
20260510023839 23 86 0.0 0.0 0.00 1.17 0.00 76 1008.9
20260510021707 23 83 0.0 0.0 0.00 1.17 0.00 76 1008.6
20260510020725 23 81 0.0 0.0 0.00 1.17 0.00 75 1008.6
20260510015706 23 88 0.0 0.0 0.00 1.17 0.00 75 1008.6
20260510014638 24 86 0.0 0.0 0.00 1.17 0.00 74 1008.4
20260510013637 24 82 0.0 0.0 0.00 1.17 0.00 73 1008.4
20260510012647 25 85 0.0 4.8 0.00 1.17 0.00 72 1008.2
20260510011634 25 65 0.0 0.0 0.00 1.17 0.00 71 1008.1
20260510010622 26 89 0.0 0.0 0.00 1.17 0.00 69 1008.0
20260510005638 26 90 0.0 0.0 0.00 1.17 0.00 68 1007.9
20260510004626 26 92 0.0 1.6 0.00 1.17 0.00 66 1007.7
20260510003552 27 109 0.0 0.0 0.00 1.17 0.00 66 1007.7
20260510002603 27 126 3.2 12.9 0.00 1.17 0.00 64 1007.6
20260510001626 27 132 1.6 9.7 0.00 1.17 0.00 65 1007.6
20260510000611 27 92 3.2 9.7 0.00 1.17 0.00 63 1007.7
20260509235622 28 94 1.6 8.0 0.00 1.17 0.00 62 1007.9
20260509234553 28 84 1.6 9.7 0.00 1.17 0.00 60 1008.0
20260509233528 28 84 1.6 8.0 0.00 1.17 0.00 62 1008.0
20260509232517 28 83 0.0 3.2 0.00 1.17 0.00 62 1007.9
20260509230355 28 87 1.6 12.9 0.00 1.17 0.00 61 1007.9
20260509225329 28 96 3.2 12.9 0.00 1.17 0.00 62 1008.0
20260509215918 28 103 1.6 16.1 0.00 1.17 0.00 63 1007.8
20260509214920 28 46 4.8 14.5 0.00 1.17 0.00 63 1007.9
20260509213937 28 100 3.2 14.5 0.00 1.17 0.00 65 1007.9
20260509212938 28 68 3.2 16.1 0.00 1.17 0.00 66 1008.0
20260509211947 28 84 4.8 16.1 0.00 1.17 0.00 67 1008.2
20260509210939 28 92 4.8 16.1 0.00 1.17 0.00 67 1008.3
20260509210003 28 64 4.8 14.5 0.00 1.17 0.00 70 1008.5
20260509202755 27 49 3.2 12.9 0.00 1.17 0.00 69 1008.8
20260509201738 27 26 1.6 11.3 0.00 1.17 0.00 71 1008.9
20260509200710 27 80 0.0 11.3 0.00 1.17 0.00 71 1009.1
20260509195716 27 44 3.2 14.5 0.00 1.17 0.00 70 1009.2
20260509194741 27 57 1.6 0.0 0.00 1.17 0.00 71 1009.3
20260509193710 26 68 3.2 12.9 0.00 1.17 0.00 73 1009.5
20260509192641 26 63 3.2 16.1 0.00 1.17 0.00 75 1009.5
20260509185354 26 14 4.8 9.7 0.00 1.17 0.00 76 1009.7
20260509184401 26 58 4.8 16.1 0.00 1.17 0.00 77 1009.7
20260509183346 26 46 4.8 16.1 0.00 1.17 0.00 77 1009.9
20260509181223 25 27 3.2 12.9 0.00 1.17 0.00 79 1010.0
20260509180236 25 22 3.2 12.9 0.00 1.17 0.00 76 1010.2
20260509174105 25 0 4.8 12.9 0.00 1.17 0.00 79 1010.2
20260509173116 25 5 4.8 12.9 0.00 1.17 0.00 78 1010.2
20260509172128 25 5 1.6 14.5 0.00 1.17 0.00 78 1010.3
20260509171123 25 26 4.8 16.1 0.00 1.17 0.00 80 1010.4
20260509170106 25 0 6.4 16.1 0.00 1.17 0.00 80 1010.3
20260509165056 25 335 6.4 14.5 0.00 1.17 0.00 81 1010.4